Location: Gro� Glienicke
(52.4675°N, 13.1079°E)
Time: 01:24:42
(UTC+00:00)

Cosmos 2184 Rocket - Pass Details

Date: 06 July 2020
Orbit: 960 x 1001 km, 82.9° (Epoch: 11 August)

Event Time Altitude Azimuth Distance (km) Brightness Sun altitude
Exits shadow 21:08:52 - 179° (S) 2,809 5.9 -10.3°
Reaches altitude 10° 21:09:07 10° 178° (S) 2,717 5.8 -10.3°
Maximum altitude 21:15:19 72° 96° (E) 1,035 4.1 -10.7°
Drops below altitude 10° 21:21:37 10° 13° (NNE) 2,765 7.2 -11.2°
Sets 21:24:10 0° 12° (NNE) 3,723 8.0 -11.3°
